Content
SEND FEEDBACK

Daily
Averages
Monthly
Summary
Thailand

KHON KAEN, THAILAND


Home > Asia > Thailand
Elevation: 515 feet     Latitude: 16 20N     Longitude: 102 51E

WEATHER
 
SELECT A DAY
Number of Records: 68,891;   Date Range: 12/16/03 - 10/29/14
 
SHARE

PRINT THIS DATA

[ ← Previous Day ]
WEATHER ALMANAC - FEBRUARY 19, 2013
[ Next Day → ]
[ °C ]   °F
Weather ElementAverageHighLow
Temperature88.1 °F98.6 °F (3:00 pm)75 °F (7:00 am)
Dewpoint69.2 °F71.6 °F (8:00 am)64 °F (7:00 am)
Humidity53.8 %78 % (5:00 am)28 % (1:00 pm)
Barometer29.77 in29.86 in (9:00 am)29.68 in (5:00 pm)
Wind Speed2.9 mph8.1 mph (1:00 pm)
Weather ElementAverage
Visibility5 mi
Wind DirectionESE (114.7 °)

Weather ElementTotal
Precipitation---
Cooling Degree Days21.8 (Base 65)
Growing Degree Days36.8 (Base 50)
Averaged from 19 records on February 19, 2013
WEATHER CONDITIONS BREAKOUT
WIND DIRECTION BREAKOUT
WEATHER BY HOUR - FEBRUARY 19, 2013
[ °C ]   °F
Local TimeTemperatureDewpointHumidityBarometerVisibilityWind DirectionWind SpeedGust SpeedPrecipitationEventsConditions
5:00 AM75.2 °F68.0 °F78 %29.77 in4.3 miWest (260°)3.5 mph
6:00 AM75.2 °F68.0 °F78 %29.80 in4.3 miWest (260°)2.3 mph
7:00 AM75.0 °F64.0 °F61 %29.81 in2.0 miCalmMist
7:00 AM75.2 °F68.0 °F78 %29.83 in2.5 miCalmMist
8:00 AM78.8 °F71.6 °F78 %29.83 in3.1 miNorth (360°)3.5 mphMist
9:00 AM84.2 °F71.6 °F66 %29.86 in3.7 miWNW (300°)4.6 mph
10:00 AM87.8 °F71.6 °F58 %29.86 in5.6 miWNW (300°)4.6 mph
11:00 AM91.4 °F71.6 °F52 %29.83 in5.6 miVariable3.5 mph
12:00 PM93.2 °F71.6 °F49 %29.80 in5.6 miVariable4.6 mph
1:00 PM93.2 °F69.8 °F46 %29.77 in5.6 miVariable4.6 mphPartly Cloudy
1:00 PM95.0 °F65.0 °F28 %29.75 in6.0 miNE (50°)8.1 mphHaze
2:00 PM95.0 °F71.6 °F47 %29.77 in5.6 miSSW (210°)4.6 mphPartly Cloudy
3:00 PM98.6 °F68.0 °F37 %29.71 in5.6 miVariable2.3 mphScattered Clouds
4:00 PM96.8 °F68.0 °F39 %29.71 in6.2 miVariable2.3 mphScattered Clouds
5:00 PM96.8 °F69.8 °F41 %29.68 in6.2 miCalmPartly Cloudy
6:00 PM93.2 °F68.0 °F44 %29.71 in6.2 miEast (80°)1.2 mphPartly Cloudy
7:00 PM91.0 °F69.0 °F39 %29.69 in6.0 miCalmClear
7:00 PM91.4 °F69.8 °F49 %29.71 in5.6 miEast (80°)2.3 mph
8:00 PM87.8 °F69.8 °F55 %29.74 in5.6 miNE (50°)2.3 mph
Hourly data recorded from VTUK, located miles away from Khon Kaen, Thailand







STORIES FROM OUR PARTNERS